CAPE
0 0 0 0 0 0 0 1 2 0 0 0 0 0 0 0 0 0 0 0 0 0 0 0 0 0 0 0 0 0 0 0 0 0 0 0 0 0 0 0 0 0 0 0 0 0 0
0 0 0 0 0 0 2 4 4 0 0 0 0 0 0 0 0 0 0 0 0 0 0 0 0 0 0 0 0 0 0 0 0 0 0 0 0 0 0 0 0 0 0 0 0 0 0
0 0 0 0 0 0 4 5 1 0 0 0 0 0 0 0 0 0 0 0 0 0 0 0 0 0 0 0 0 0 0 0 0 0 0 0 0 0 0 0 0 0 0 0 0 0 0
0 0 0 0 1 4 7 0 0 0 0 0 0 0 0 0 0 0 0 0 0 0 0 0 0 0 0 0 0 0 0 0 0 0 0 0 0 0 0 0 0 0 0 0 0 0 0
6 3 3 5 7 7 0 0 0 0 0 0 0 0 0 0 0 0 0 0 0 0 0 0 0 0 0 0 0 0 0 0 0 0 0 0 0 0 0 0 0 0 0 0 0 0 0
28 9 17 12 17 5 0 0 0 0 0 0 0 0 0 0 0 0 0 0 0 0 0 0 0 0 0 0 0 0 0 0 0 0 0 0 0 0 0 0 0 0 0 0 0 0 0
22 0 2 14 12 1 0 0 0 0 0 0 0 0 0 0 0 0 0 0 0 0 0 0 0 0 0 0 0 0 0 0 0 0 0 0 0 0 0 0 0 0 0 0 0 0 0
14 0 0 3 2 1 0 0 0 0 0 0 0 0 0 0 0 0 0 0 0 0 0 0 0 0 0 0 0 0 0 0 0 0 0 0 0 0 0 0 0 0 0 0 0 0 0
23 11 4 0 0 0 0 0 0 0 0 0 0 0 0 0 0 0 0 0 0 0 0 0 0 0 0 0 0 0 0 0 0 0 0 0 0 0 0 0 0 0 0 0 0 0 0
28 18 13 1 0 1 1 0 2 0 0 0 0 0 0 0 0 0 0 0 0 0 0 0 0 0 0 0 0 0 0 0 0 0 0 0 0 0 0 0 0 0 0 0 0 0 0
18 22 14 3 0 0 0 0 1 0 0 0 0 0 0 0 0 0 0 0 0 0 0 0 0 0 0 0 0 0 0 0 0 0 0 0 0 0 0 0 0 0 0 0 0 0 0
23 50 35 4 1 0 0 1 0 0 0 0 0 0 0 0 0 0 0 0 0 0 0 0 0 0 0 0 0 0 0 0 0 0 0 0 0 0 0 0 0 0 0 0 0 0 0
14 24 45 20 2 0 0 8 0 0 0 0 0 0 0 0 0 0 0 0 0 0 0 0 0 0 0 0 0 0 0 0 0 0 0 0 0 0 0 0 2 2 7 67 101 128 31
0 6 12 32 4 2 4 8 0 0 0 0 0 0 0 0 0 0 0 0 0 0 0 0 0 0 0 0 0 0 0 0 0 0 0 0 0 0 0 1 19 97 120 251 311 136 287
0 0 4 23 6 4 11 14 0 0 0 0 0 0 0 0 0 0 0 0 0 0 0 0 0 0 0 0 0 0 0 0 0 0 0 0 0 0 0 0 4 70 196 150 266 173 279
0 0 0 11 1 4 16 17 1 0 0 0 0 0 0 0 0 0 0 0 0 0 0 0 0 0 0 0 0 0 0 0 0 0 0 2 6 0 0 0 0 2 140 298 372 283 177
0 0 4 13 0 3 16 8 5 0 0 0 0 0 0 0 0 0 0 0 0 0 0 0 0 0 0 0 0 0 0 0 0 0 0 0 31 0 1 0 6 1 147 202 317 260 162
3 5 7 12 0 5 11 10 4 0 0 0 0 0 0 0 0 0 0 0 0 0 0 0 0 0 0 0 0 0 0 0 0 1 8 0 5 5 2 0 0 6 10 4 19 266 222
3 19 51 22 2 7 18 10 1 0 0 0 1 0 0 0 0 0 0 0 0 0 0 0 0 0 0 0 0 0 0 0 2 7 11 13 2 18 0 0 0 31 24 14 7 15 41
1 102 95 5 8 17 20 9 0 0 0 0 2 2 0 0 0 0 0 0 0 0 0 0 0 0 0 0 0 0 1 2 13 12 16 56 51 44 42 16 0 45 10 58 15 14 5
2 38 21 13 14 20 25 7 3 4 0 0 0 1 0 0 0 0 0 0 0 0 0 0 0 0 0 0 0 0 2 15 17 18 14 46 47 36 32 28 10 0 1 15 45 44 11
0 0 7 31 56 51 32 17 13 6 0 0 0 0 0 0 0 0 0 0 0 0 0 0 0 0 0 0 5 9 10 0 13 16 39 59 58 47 32 20 16 10 0 0 12 27 66
0 0 0 0 1 2 8 16 6 7 3 8 0 0 0 0 0 0 0 0 0 0 0 0 0 0 0 0 0 0 3 0 0 5 8 42 73 76 32 13 11 14 1 0 0 2 3
11 0 0 0 3 7 15 20 9 26 5 24 0 0 0 0 0 0 0 0 0 0 0 0 0 0 0 0 1 0 0 0 1 2 4 19 46 96 92 32 41 8 3 0 1 2 0
14 20 39 25 30 26 41 19 28 25 9 11 0 0 2 0 0 0 0 0 0 0 0 0 0 0 0 1 14 6 1 32 34 18 14 30 40 69 70 42 22 5 0 25 19 5 0
6 4 1 66 99 72 28 21 67 24 25 0 0 0 0 40 0 0 0 0 0 0 0 0 0 0 0 23 28 14 30 45 20 36 77 48 27 76 43 39 37 0 22 7 16 14 6
3 0 22 45 70 30 21 24 36 65 29 3 1 0 0 2 0 0 0 0 0 0 0 0 0 0 2 32 30 34 43 57 44 32 29 95 85 81 83 36 4 0 0 0 22 28 6
0 0 3 0 14 53 56 45 43 74 66 14 12 0 2 4 0 0 0 4 1 0 1 0 0 7 25 20 33 56 70 69 69 71 50 79 76 84 74 80 33 10 6 12 56 117 67
26 11 23 10 11 20 68 81 66 70 117 66 30 6 0 30 5 0 0 0 0 0 6 5 0 2 9 21 10 22 32 21 16 24 51 87 62 90 118 47 34 46 0 6 35 62 26
CIN
0 0 0 0 0 0 0 0 0 0 0 0 0 0 0 0 0 0 0 0 0 0 0 0 0 0 0 0 0 0 0 0 0 0 0 0 0 0 0 0 0 0 0 0 0 0 0
0 0 0 0 0 0 0 0 0 0 0 0 0 0 0 0 0 0 0 0 0 0 0 0 0 0 0 0 0 0 0 0 0 0 0 0 0 0 0 0 0 0 0 0 0 0 0
0 0 0 0 0 0 0 0 0 0 0 0 0 0 0 0 0 0 0 0 0 0 0 0 0 0 0 0 0 0 0 0 0 0 0 0 0 0 0 0 0 0 0 0 0 0 0
0 0 0 0 0 0 0 0 0 0 0 0 0 0 0 0 0 0 0 0 0 0 0 0 0 0 0 0 0 0 0 0 0 0 0 0 0 0 0 0 0 0 0 0 0 0 0
-1 0 0 0 0 0 0 0 0 0 0 0 0 0 0 0 0 0 0 0 0 0 0 0 0 0 0 0 0 0 0 0 0 0 0 0 0 0 0 0 0 0 0 0 0 0 0
0 -1 0 0 0 0 0 0 0 0 0 0 0 0 0 0 0 0 0 0 0 0 0 0 0 0 0 0 0 0 0 0 0 0 0 0 0 0 0 0 0 0 0 0 0 0 0
0 0 0 0 0 0 0 0 0 0 0 0 0 0 0 0 0 0 0 0 0 0 0 0 0 0 0 0 0 0 0 0 0 0 0 0 0 0 0 0 0 0 0 0 0 0 0
-1 -5 0 0 0 0 0 0 0 0 0 0 0 0 0 0 0 0 0 0 0 0 0 0 0 0 0 0 0 0 0 0 0 0 0 0 0 0 0 0 0 0 0 0 0 0 0
-1 -2 -3 0 0 0 0 0 0 0 0 0 0 0 0 0 0 0 0 0 0 0 0 0 0 0 0 0 0 0 0 0 0 0 0 0 0 0 0 0 0 0 0 0 0 0 0
0 0 -4 -10 0 0 0 0 0 0 0 0 0 0 0 0 0 0 0 0 0 0 0 0 0 0 0 0 0 0 0 0 0 0 0 0 0 0 0 0 0 0 0 0 0 0 0
0 0 -1 -12 0 0 0 0 0 0 0 0 0 0 0 0 0 0 0 0 0 0 0 0 0 0 0 0 0 0 0 0 0 0 0 0 0 0 0 0 0 0 0 0 0 0 0
0 0 0 -5 0 0 0 0 0 0 0 0 0 0 0 0 0 0 0 0 0 0 0 0 0 0 0 0 0 0 0 0 0 0 0 0 0 0 0 0 0 0 0 0 0 0 0
0 0 -1 0 0 0 0 0 0 0 0 0 0 0 0 0 0 0 0 0 0 0 0 0 0 0 0 0 0 0 0 0 0 0 0 0 0 0 0 0 -85 -71 -65 -10 -2 -5 -55
0 -3 -1 -2 -6 0 0 0 0 0 0 0 0 0 0 0 0 0 0 0 0 0 0 0 0 0 0 0 0 0 0 0 0 0 0 0 0 0 0 -7 -79 -25 -29 0 -1 -5 -1
0 0 -5 -1 -4 0 0 0 0 0 0 0 0 0 0 0 0 0 0 0 0 0 0 0 0 0 0 0 0 0 0 0 0 0 0 0 0 0 0 0 -28 -50 0 -41 0 -6 0
0 0 0 -2 -5 0 0 0 0 0 0 0 0 0 0 0 0 0 0 0 0 0 0 0 0 0 0 0 0 0 0 0 0 0 0 -1 0 0 0 0 0 -1 -2 0 0 0 0
0 0 -1 0 0 0 0 0 0 0 0 0 0 0 0 0 0 0 0 0 0 0 0 0 0 0 0 0 0 0 0 0 0 0 0 0 -1 0 0 0 0 -1 0 0 -10 0 0
0 0 -1 -9 0 0 0 0 0 0 0 0 0 0 0 0 0 0 0 0 0 0 0 0 0 0 0 0 0 0 0 0 0 0 0 0 0 0 0 -1 -2 -20 -28 -1 -4 -1 0
0 -127 -75 -82 0 0 0 0 0 0 0 0 0 0 0 0 0 0 0 0 0 0 0 0 0 0 0 0 0 0 0 0 -1 0 0 -1 0 0 0 0 0 -36 -30 0 0 0 -1
0 -42 -11 -12 0 0 0 0 0 0 0 0 -6 -1 0 0 0 0 0 0 0 0 0 0 0 0 0 0 0 0 0 -1 -2 -4 0 0 0 0 0 -1 -29 -3 -1 0 0 0 0
0 -2 -5 0 0 0 0 -1 0 0 0 0 0 -2 0 0 0 0 0 0 0 0 0 0 0 0 0 0 0 0 0 -1 -1 -1 0 0 0 0 -1 -1 -1 0 0 -2 0 0 0
0 0 0 0 0 0 0 0 0 0 0 0 0 0 0 0 0 0 0 0 0 0 0 0 0 0 0 0 0 0 0 0 0 0 0 -1 0 0 0 -1 0 0 0 0 -1 0 0
-17 0 0 0 0 0 0 0 0 0 -3 0 0 0 0 0 0 0 0 0 0 0 0 0 0 0 0 0 0 0 0 0 0 0 0 0 0 0 0 0 -1 -1 0 0 0 -2 -1
-14 0 0 0 0 0 0 0 0 0 -1 -2 0 0 0 0 0 0 0 0 0 0 0 0 0 0 0 0 0 0 0 0 0 0 0 -7 -4 0 0 -1 0 0 0 -1 0 -1 0
-2 -8 0 0 0 0 0 0 0 0 -2 -1 0 0 -1 0 0 0 0 0 0 0 0 0 0 0 0 0 0 0 0 -2 -13 -15 -4 -1 -4 0 0 0 0 0 0 -1 -1 -1 0
-23 -32 0 0 0 0 0 0 0 0 0 0 0 0 0 -1 0 0 0 0 0 0 0 0 0 0 0 0 0 0 0 0 0 0 0 0 -2 0 0 0 0 0 -5 -7 -4 0 -1
-15 0 -34 -6 -6 -1 -2 0 0 0 -1 -1 0 0 0 0 0 0 0 0 0 0 0 0 0 0 0 0 0 0 0 0 0 0 -3 -1 0 0 0 -2 0 0 0 -8 -1 -1 -1
0 -8 -37 0 0 0 0 0 0 0 0 -1 0 0 0 0 0 0 0 0 0 0 0 0 0 0 0 0 0 0 0 0 0 -1 -1 0 -1 0 0 0 -3 -3 -19 -16 -4 -5 -20
-3 -1 -4 -5 -3 -1 0 -9 0 0 0 0 0 0 0 0 0 0 0 0 0 0 0 0 0 0 0 0 0 0 0 -2 0 -8 -11 -1 -1 0 -2 -1 -7 -27 -6 -29 -2 -1 -18
Wind_Speed
2 2 2 3 5 6 7 8 9 11 13 14 15 17 18 20 22 23 23 22 22 21 20 16 12 9 9 7 9 6 4 9 12 13 13 11 11 11 12 8 11 15 16 13 11 12 13
5 5 5 5 6 7 8 9 9 10 11 13 15 16 18 20 22 23 24 22 23 22 18 13 7 5 8 11 2 4 1 11 11 14 13 11 10 10 10 11 12 10 9 13 13 14 14
8 8 8 8 8 9 9 9 8 10 12 14 16 17 19 20 21 23 23 21 23 18 13 9 6 8 8 13 2 5 2 7 8 12 10 9 10 7 3 11 10 12 17 16 17 17 15
11 11 11 11 11 11 9 8 8 9 11 14 15 17 19 20 22 24 24 22 17 12 7 2 8 8 8 5 4 4 4 6 7 11 9 7 6 10 11 13 11 13 15 15 7 1 5
14 14 14 13 13 11 10 9 9 10 12 14 17 18 20 22 24 26 26 24 12 5 1 5 7 7 6 3 3 3 6 7 9 8 7 5 7 12 9 12 14 14 14 15 11 12 6
15 14 15 15 15 11 11 11 10 10 12 14 17 18 20 22 24 26 26 25 6 6 8 7 6 7 5 3 5 6 2 7 7 9 9 9 8 10 12 13 14 16 14 13 11 6 6
15 14 14 13 13 13 12 11 11 10 10 12 14 17 19 21 24 23 17 7 5 8 6 10 12 15 9 8 10 6 3 9 9 12 15 15 13 17 18 18 19 20 20 20 18 16 14
17 16 14 13 13 14 13 13 12 10 10 11 13 16 18 19 21 19 11 6 6 6 12 4 8 8 7 5 6 11 4 10 11 15 15 16 18 18 19 17 17 18 20 22 19 18 13
19 18 17 17 17 16 16 15 12 10 9 10 12 14 17 20 19 8 7 7 7 3 8 3 2 3 3 4 4 2 4 10 16 14 17 19 12 6 16 19 17 19 20 20 21 18 18
20 20 21 19 19 18 17 15 12 10 9 9 10 13 17 23 8 6 3 9 6 3 7 8 4 4 1 4 2 5 4 7 6 10 14 15 16 22 20 18 15 21 16 19 19 15 15
21 23 23 22 21 20 17 15 13 11 7 6 7 10 12 9 9 4 6 7 1 5 9 5 6 2 5 4 8 4 3 3 8 10 7 8 9 9 17 21 16 21 14 13 15 16 16
21 22 24 24 22 20 18 16 14 12 8 5 6 10 13 5 5 4 7 4 5 7 8 5 4 6 10 3 8 9 4 4 9 13 15 21 20 18 13 15 16 17 9 12 13 12 15
23 23 24 25 24 22 20 18 16 13 9 4 4 8 8 5 5 7 6 5 7 8 4 6 4 8 12 9 10 10 12 10 12 14 16 18 19 20 16 16 16 13 12 9 9 12 15
23 24 25 26 26 25 23 21 17 13 8 3 2 8 2 3 7 8 6 8 10 3 7 4 4 14 9 9 7 12 13 10 8 10 13 14 24 21 19 20 16 17 19 11 15 13 12
23 24 25 26 28 27 26 24 20 16 10 4 3 4 2 2 6 5 6 10 6 7 4 10 14 12 11 3 7 10 8 10 5 12 8 9 18 23 24 21 11 20 19 24 23 23 17
26 26 25 25 29 29 27 25 21 15 11 8 3 4 4 4 6 5 6 7 2 5 4 5 5 3 9 11 12 8 7 7 5 6 13 8 17 14 16 21 19 21 18 15 12 8 17
27 25 24 23 28 28 26 26 22 18 13 8 1 2 4 6 6 6 7 3 4 4 5 5 4 7 9 13 7 9 7 12 9 8 12 18 9 19 18 15 17 17 15 24 11 16 17
24 22 21 22 27 27 28 28 24 20 15 7 3 5 4 5 6 2 4 5 2 5 3 3 3 6 10 10 12 8 12 10 12 13 15 18 18 19 22 24 22 19 9 6 6 17 16
20 16 18 22 26 30 30 30 27 23 12 6 4 1 2 3 5 5 4 5 3 5 4 2 2 3 6 9 7 8 7 4 10 8 9 13 9 15 20 19 23 6 5 8 7 3 10
18 14 17 22 32 33 32 30 27 24 16 5 3 4 3 3 2 6 9 8 6 2 4 3 3 6 8 10 11 11 14 9 3 9 14 13 13 17 16 20 21 12 6 7 5 5 8
30 13 17 28 31 29 29 27 26 26 20 3 4 3 2 5 6 9 10 9 11 7 6 7 5 6 6 6 12 16 16 8 12 16 16 14 18 19 19 22 24 26 24 13 14 8 5
24 26 25 21 17 20 21 23 24 22 15 2 4 4 3 4 10 10 8 11 12 10 10 7 8 6 8 14 16 19 19 17 16 15 17 15 18 18 19 22 23 26 29 23 19 17 10
21 28 30 30 32 31 29 27 27 25 16 3 2 2 5 9 11 10 10 12 16 11 8 6 6 7 10 14 13 15 16 19 18 17 18 19 15 17 21 22 23 21 21 24 23 23 17
17 21 25 28 31 33 32 32 32 27 16 1 4 4 3 6 11 12 9 12 13 13 6 10 10 9 5 8 15 16 18 21 22 22 19 20 20 15 17 19 23 20 22 24 22 15 15
3 11 20 28 31 31 28 27 27 27 25 3 3 2 1 3 12 14 13 12 10 9 11 9 10 9 9 9 8 10 10 13 17 20 19 20 17 10 14 16 21 25 24 19 11 14 18
12 6 13 19 21 23 25 25 27 29 27 8 5 3 2 4 9 14 13 15 13 13 10 10 6 5 5 4 5 7 11 15 7 6 7 9 17 13 11 13 16 19 20 20 7 10 11
8 14 9 7 16 24 24 26 27 27 25 11 4 7 2 3 4 10 10 14 14 9 4 9 10 6 9 4 7 10 14 16 13 12 8 4 7 15 15 11 13 15 10 4 8 1 7
6 3 5 4 1 13 29 29 31 30 28 14 6 9 5 2 3 9 10 8 10 9 4 10 5 7 5 6 5 7 6 7 7 14 14 13 6 6 4 7 14 11 8 9 6 6 7
5 6 3 4 7 14 18 31 31 30 28 21 7 9 8 3 2 6 13 13 12 5 5 5 5 9 5 5 5 4 9 10 15 15 0 4 6 7 6 5 6 13 11 12 7 5 4
Wind_Direction
310 319 330 335 337 340 343 345 347 346 344 343 341 338 334 333 330 330 327 324 319 315 311 301 288 281 277 241 257 70 107 167 175 201 208 208 221 233 251 258 261 246 265 273 272 271 263
277 278 282 294 303 313 322 328 333 335 333 333 333 333 332 334 330 328 322 320 318 315 308 301 269 219 241 256 67 15 255 173 192 200 212 219 241 248 286 276 259 289 298 282 274 268 265
264 268 272 278 286 297 305 316 319 323 324 327 331 333 333 333 330 325 318 319 318 308 303 299 218 231 250 254 356 328 221 210 214 218 227 227 258 245 289 262 267 277 278 273 261 250 244
260 264 269 276 282 290 297 301 303 312 317 321 327 331 331 331 330 324 319 320 322 307 322 310 187 225 266 81 334 238 214 197 205 223 247 269 234 258 277 284 267 260 261 273 268 305 241
259 258 261 265 270 279 284 289 295 303 315 323 328 333 335 335 332 328 320 319 308 283 168 159 235 253 276 137 231 359 245 224 205 211 216 242 220 229 228 249 267 245 264 276 266 186 255
251 258 256 255 261 259 270 279 286 300 315 325 328 333 338 336 333 331 317 298 286 242 209 233 257 250 232 9 344 314 254 239 201 198 205 221 220 235 230 242 249 271 272 270 258 248 221
242 247 252 260 253 249 261 265 273 288 306 318 326 332 338 337 335 328 322 304 272 192 234 288 324 293 292 343 269 229 194 202 212 204 215 197 220 228 241 248 256 277 284 278 275 282 268
237 237 244 248 246 246 254 257 266 280 301 314 326 333 334 332 331 311 308 35 35 327 303 265 282 277 283 299 262 232 196 210 200 223 224 233 230 248 257 256 266 272 265 268 274 273 277
239 231 232 231 233 238 242 246 251 265 286 307 322 332 332 330 328 290 49 33 330 274 260 192 258 293 15 247 330 21 238 234 253 242 245 239 248 234 241 255 256 259 261 274 281 298 285
245 232 228 226 227 232 236 239 246 256 277 306 327 336 333 327 300 358 49 357 346 230 268 133 144 97 187 296 211 355 318 278 231 260 258 263 258 260 256 256 244 260 264 268 272 276 275
257 238 228 224 224 224 223 227 230 245 260 287 318 328 326 333 318 305 2 337 43 233 286 50 87 59 318 324 350 92 11 225 280 270 246 243 226 250 255 243 239 258 283 282 275 271 280
265 255 235 224 221 220 219 219 218 225 233 270 318 326 320 218 242 6 318 309 222 231 239 80 72 352 355 31 360 342 314 214 269 272 260 263 277 277 261 280 253 272 262 262 266 268 255
271 264 245 227 219 214 209 206 212 221 218 219 312 318 300 297 329 329 301 233 244 236 70 71 355 338 323 5 309 357 319 302 299 304 275 284 257 240 243 259 260 249 225 245 239 228 258
268 256 253 228 218 210 204 197 201 204 208 185 319 294 163 326 323 314 258 235 248 65 34 24 316 302 304 12 347 338 320 319 55 346 295 275 279 261 263 228 252 238 223 231 245 258 284
271 255 245 234 213 205 201 191 189 183 173 176 188 195 223 32 328 299 255 229 296 31 14 347 319 295 287 106 15 321 326 314 22 14 311 321 268 306 320 320 300 249 244 242 263 276 284
272 261 240 230 208 202 192 181 174 170 157 177 180 214 165 345 315 259 240 242 63 52 356 334 311 328 307 327 328 337 328 11 11 55 345 322 293 280 299 302 269 271 276 239 240 228 231
282 259 236 222 205 194 180 168 163 151 146 182 226 195 80 318 246 224 221 64 128 91 10 340 332 294 299 310 284 297 272 301 304 327 330 300 257 284 302 273 277 275 252 256 237 252 243
291 264 236 215 201 177 161 158 149 135 121 52 79 210 43 297 192 341 205 147 123 122 72 49 328 293 284 302 299 291 269 259 315 342 306 296 289 278 280 297 298 296 321 307 318 237 226
297 253 231 203 172 156 155 151 146 138 102 105 179 286 29 302 174 185 152 138 155 150 123 133 267 258 313 299 296 288 277 316 303 305 298 325 284 288 276 257 257 336 12 319 301 282 285
328 245 218 170 151 150 149 147 142 142 139 116 164 171 153 205 6 204 179 188 157 114 150 206 259 258 279 282 266 273 280 283 275 278 288 287 266 259 274 293 304 290 318 314 354 308 342
43 65 126 140 139 143 145 145 146 149 161 172 219 190 328 168 204 200 197 174 187 173 215 192 213 243 275 283 283 275 281 289 254 284 279 259 269 278 285 286 277 281 271 248 267 265 254
92 94 101 110 125 140 147 146 151 155 154 257 160 163 176 115 146 147 166 197 198 193 166 196 228 236 265 263 264 283 286 279 277 290 281 265 272 281 289 287 284 281 280 276 253 256 244
152 152 155 160 164 165 169 166 162 163 158 189 219 256 166 149 170 188 184 183 199 187 202 218 214 245 260 277 299 296 290 282 277 274 273 285 279 281 279 286 294 281 273 262 258 254 250
197 188 177 179 181 179 176 169 170 170 180 259 195 174 189 150 191 203 201 194 201 195 190 196 226 241 259 286 289 282 267 262 261 257 252 255 261 276 275 281 271 276 271 272 259 261 267
39 265 234 195 192 185 173 173 178 172 190 221 176 203 175 121 202 207 185 193 194 195 224 224 243 265 279 290 290 274 261 235 254 250 244 233 245 257 257 262 277 280 277 277 237 251 246
33 350 347 207 173 181 168 180 194 184 196 214 193 255 120 130 218 207 193 194 196 205 204 222 227 256 257 268 261 260 278 294 279 292 198 221 223 232 251 262 273 273 320 241 233 260 248
28 36 21 231 231 164 181 195 202 203 191 200 178 218 152 180 201 218 207 202 211 203 199 147 185 214 221 220 252 262 267 267 267 278 290 208 229 230 239 238 261 275 247 282 219 296 136
334 5 83 25 318 221 203 203 204 213 191 195 180 204 182 189 189 204 203 210 190 199 184 116 165 192 184 224 252 270 283 303 284 274 287 287 272 249 247 240 252 304 169 234 60 115 142
297 306 296 236 264 319 255 212 210 206 191 192 207 182 213 173 284 222 216 217 220 226 214 160 264 157 188 236 249 288 295 291 278 282 267 261 251 281 237 277 276 338 330 326 327 233 177